BEIDOU-2 M3 (C11)

Last updated on Tue Aug 25 2026 00:03:25 GMT+0000 (Coordinated Universal Time)

1 38250U 12018A 26235.30847259 -.00000048 00000+0 00000+0 0 9997 2 38250 55.6963 302.6095 0022258 272.0179 87.7989 1.86230260 97198
UTC large
Height (km)
Speed (km/s)
/
Latitude / Longitude
Inclination (degrees)
Orbital Period (minutes)
Azimuth
Elevation
Range (km)
Doppler Factor

Next 0 passes for location: London (51.5072 / 0.1276)

No passes found over London.
BEIDOU-2 M3 (C11)